[[{"header":{"parameterUnit":"m.s-1","parameterCategory":1,"la1":30.2991,"la2":30.254,"lo1":-89.0895,"lo2":-89.0444,"dy":0.0017,"dx":0.0017,"nx":28,"ny":28,"refTime":"2025-01-03T09:00:00:Z","depth":0,"parameterNumber":2,"parameterNumberName":"U-component_of_WINDS"},"data":[0,0,0,0,0,0,0,0,0,0,0,0,0,0,0,0,0,0,0,0,0,0,0,0,0,0,0,0,0,0,0,0,0,0,0,0,0,0,0,0,0,0,0,0,0,0,0,0,0,0,0,0,0,0,0,0,0,0,-4.104,-4.1042,0,-4.1155,-4.1157,-4.1158,-4.1144,-4.1142,-4.114,-4.1139,-4.1255,-4.126,-4.1265,0,0,0,0,0,0,0,0,0,0,0,0,0,-4.0809,-4.0814,-4.104,-4.1042,-4.1043,-4.1155,-4.1157,-4.1158,-4.1144,-4.1142,-4.114,-4.1138,-4.1254,-4.126,-4.1265,0,0,0,0,0,0,0,0,0,0,0,0,0,-4.0915,-4.0815,-4.104,-4.105,-4.1052,-4.1155,-4.1157,-4.1159,-4.1145,-4.1142,-4.1139,-4.1137,-4.1252,-4.1259,-4.1266,-4.1366,0,0,-4.1288,-4.1291,0,0,0,0,0,0,0,0,-4.0909,-4.0924,-4.1047,-4.1049,-4.1052,-4.1133,-4.1118,-4.1228,-4.1146,-4.111,-4.1139,-4.1135,-4.1217,-4.1227,-4.1254,-4.1372,-4.1377,-4.1289,-4.1293,-4.1296,-4.1299,0,0,0,0,0,0,0,-4.0902,-4.0919,-4.1086,-4.1049,-4.1052,-4.1049,-4.1061,-4.1139,-4.1177,-4.1112,-4.1112,-4.1126,-4.1218,-4.1247,-4.1257,-4.1379,-4.1289,-4.1295,-4.13,-4.1303,-4.1584,-4.1587,0,0,0,0,0,0,-4.0892,-4.0913,-4.1082,-4.1089,-4.0972,-4.1055,-4.1068,-4.1109,-4.1176,-4.1184,-4.1128,-4.1125,-4.1236,-4.1249,-4.1261,-4.1382,-4.1296,-4.1303,-4.1307,-4.1581,-4.1585,-4.1588,0,0,0,0,0,0,-4.0887,-4.0908,-4.1077,-4.1001,-4.1022,-4.1062,-4.1108,-4.1113,-4.1143,-4.1188,-4.1195,-4.1151,-4.1235,-4.1251,-4.134,-4.1386,-4.1306,-4.1313,-4.1577,-4.1582,-4.1586,-4.1625,0,0,0,0,0,0,-4.0881,-4.0906,-4.0944,-4.1002,-4.1026,-4.1155,-4.1111,-4.1117,-4.1155,-4.1152,-4.1212,-4.1219,-4.1234,-4.133,-4.1347,-4.1394,-4.1319,-4.1573,-4.1579,-4.1585,-4.1619,-4.163,-4.1639,0,0,0,0,0,-4.0873,-4.095,-4.0946,-4.0967,-4.1075,-4.1157,-4.1171,-4.1187,-4.1159,-4.1198,-4.1227,-4.1217,-4.1379,-4.1339,-4.1359,-4.1408,-4.157,-4.1577,-4.1584,-4.1615,-4.1628,-4.1639,0,0,0,0,0,0,-4.0896,-4.0958,-4.0954,-4.1053,-4.11,-4.1155,-4.1204,-4.12,-4.1256,-4.1251,-4.1268,-4.1282,-4.1372,-4.14,-4.1354,-4.1509,-4.1471,-4.1482,-4.1487,-4.15,-4.1509,-4.15,-4.1325,0,0,0,0,0,-4.0913,-4.0975,-4.1025,-4.1108,-4.1132,-4.1164,-4.12,-4.1209,-4.1258,-4.1278,-4.1314,-4.1362,-4.1424,-4.1464,-4.1523,-4.1624,-4.1637,-4.1669,-4.1678,-4.1686,-4.1695,-4.175,-4.1765,-4.1611,-4.1611,-4.1611,0,0,-4.0948,-4.0989,-4.1027,-4.1113,-4.1151,-4.1214,-4.1181,-4.1249,-4.1296,-4.1288,-4.1374,-4.1403,-4.1458,-4.1554,-4.1598,-4.1579,-4.1741,-4.1695,-4.1701,-4.1706,-4.1759,-4.1773,-4.1786,-4.1616,-4.1615,-4.1614,0,0,-4.1044,-4.1082,-4.1154,-4.1193,-4.125,-4.1272,-4.1289,-4.1345,-4.1364,-4.1451,-4.1446,-4.1503,-4.1609,-4.1648,-4.1682,-4.1794,-4.1786,-4.1813,-4.1864,-4.1917,-4.1929,-4.194,-4.1978,-4.1992,-4.1822,-4.1823,-4.1823,0,-4.1079,-4.1175,-4.1192,-4.1261,-4.1298,-4.1296,-4.1369,-4.1405,-4.1479,-4.1505,-4.1485,-4.1618,-4.1655,-4.1759,-4.1787,-4.1815,-4.1835,-4.1805,-4.1926,-4.1937,-4.1947,-4.1984,-4.1999,-4.1825,-4.1825,-4.1825,-4.1824,0,-4.1215,-4.1282,-4.1333,-4.1405,-4.1449,-4.152,-4.1547,-4.159,-4.1595,-4.1619,-4.1707,-4.1752,-4.182,-4.1846,-4.1852,-4.1952,-4.1939,-4.1922,-4.1883,-4.1964,-4.1999,-4.2014,-4.1829,-4.1828,-4.1827,-4.1827,0,0,-4.1326,-4.1408,-4.1426,-4.1458,-4.1523,-4.1574,-4.1645,-4.1712,-4.1748,-4.18,-4.1859,-4.195,-4.1935,-4.1973,-4.1984,-4.2031,-4.2116,-4.2009,-4.201,-4.2025,-4.2227,-4.2238,-4.2254,-4.2112,-4.2115,-4.2117,-4.2222,0,-4.1427,-4.1552,-4.157,-4.1681,-4.1742,-4.1741,-4.1803,-4.1849,-4.1873,-4.1929,-4.1956,-4.2019,-4.1995,-4.2019,-4.2066,-4.2095,-4.2156,-4.2089,-4.2166,-4.2169,-4.215,-4.2273,-4.2284,-4.238,-4.2236,-4.2238,-4.224,0,-4.156,-4.1616,-4.1732,-4.1788,-4.1814,-4.187,-4.1932,-4.1986,-4.2038,-4.2053,-4.2097,-4.2102,-4.2175,-4.2136,-4.2237,-4.219,-4.2224,-4.2244,-4.2248,-4.2253,-4.2208,-4.228,-4.2412,-4.2425,-4.2262,-4.226,-4.2259,0,-4.1627,-4.1732,-4.1815,-4.1843,-4.191,-4.1949,-4.1979,-4.2029,-4.2068,-4.2124,-4.2149,-4.2213,-4.2247,-4.2296,-4.2317,-4.2287,-4.2417,-4.2379,-4.243,-4.2429,-4.2455,-4.2453,-4.2592,-4.2481,-4.2481,-4.248,-4.248,0,-4.1736,-4.1807,-4.1846,-4.1896,-4.1976,-4.1997,-4.2075,-4.2104,-4.2148,-4.2205,-4.2209,-4.2261,-4.2288,-4.2345,-4.2363,-4.2443,-4.2459,-4.2473,-4.2476,-4.2471,-4.2469,-4.2491,-4.2484,-4.2484,-4.2483,-4.2483,-4.2482,0,-4.1824,-4.1852,-4.1943,-4.2,-4.2016,-4.2072,-4.2121,-4.217,-4.2195,-4.2266,-4.2284,-4.2323,-4.2391,-4.2418,-4.2501,-4.2513,-4.2604,-4.2604,-4.2586,-4.2587,-4.2635,-4.263,-4.2792,-4.2814,-4.269,-4.2691,-4.2692,0,-4.189,-4.1944,-4.2008,-4.2046,-4.2077,-4.2139,-4.2179,-4.2202,-4.2243,-4.2308,-4.2349,-4.2417,-4.2472,-4.2579,-4.2615,-4.2678,-4.2678,-4.273,-4.2687,-4.268,-4.2676,-4.2672,-4.2677,-4.2737,-4.2739,-4.274,-4.274,0,-4.2004,-4.2016,-4.2074,-4.2137,-4.2185,-4.2235,-4.2285,-4.2316,-4.2347,-4.2393,-4.2462,-4.2505,-4.259,-4.2656,-4.2722,-4.2752,-4.2751,-4.2754,-4.2769,-4.2763,-4.275,-4.2756,-4.2606,-4.275,-4.2749,-4.2748,-4.2748,-4.2747,-4.2082,-4.213,-4.2182,-4.2247,-4.2286,-4.2333,-4.2382,-4.2413,-4.2471,-4.2541,-4.2552,-4.2626,-4.2677,-4.2765,-4.2799,-4.2857,-4.2843,-4.2865,-4.287,-4.2874,-4.2877,-4.2743,-4.2869,-4.2869,-4.2869,-4.2868,-4.2868,0,-4.2195,-4.2229,-4.2288,-4.2357,-4.2408,-4.2404,-4.2458,-4.2501,-4.2565,-4.2614,-4.2668,-4.2747,-4.2812,-4.2853,-4.2919,-4.2957,-4.2958,-4.2973,-4.297,-4.2976,-4.2886,-4.2866,-4.2971,-4.2971,-4.2971,-4.2971,-4.2971,-4.2971,-4.226,-4.2341,-4.2359,-4.246,-4.2493,-4.2565,-4.2597,-4.264,-4.2678,-4.2767,-4.282,-4.2847,-4.2893,-4.2962,-4.3021,-4.3032,-4.3055,-4.307,-4.308,-4.2994,-4.2983,-4.2973,-4.2954,-4.3076,-4.3076,-4.3165,-4.3166,-4.3166]},{"header":{"parameterUnit":"m.s-1","parameterCategory":1,"la1":30.2991,"la2":30.254,"lo1":-89.0895,"lo2":-89.0444,"dy":0.0017,"dx":0.0017,"nx":28,"ny":28,"refTime":"2025-01-03T09:00:00:Z","depth":0,"parameterNumber":3,"parameterNumberName":"V-component_of_WINDS"},"data":[0,0,0,0,0,0,0,0,0,0,0,0,0,0,0,0,0,0,0,0,0,0,0,0,0,0,0,0,0,0,0,0,0,0,0,0,0,0,0,0,0,0,0,0,0,0,0,0,0,0,0,0,0,0,0,0,0,0,3.4771,3.4774,0,3.5019,3.5022,3.5025,3.5001,3.4998,3.4994,3.499,3.5251,3.5262,3.5272,0,0,0,0,0,0,0,0,0,0,0,0,0,3.4285,3.4294,3.4771,3.4774,3.4777,3.5019,3.5022,3.5025,3.5002,3.4997,3.4993,3.4988,3.5248,3.526,3.5273,0,0,0,0,0,0,0,0,0,0,0,0,0,3.4511,3.4297,3.477,3.4794,3.4799,3.5018,3.5022,3.5026,3.5003,3.4997,3.4991,3.4986,3.5244,3.5259,3.5275,3.5488,0,0,3.5323,3.533,0,0,0,0,0,0,0,0,3.4498,3.4529,3.4788,3.4793,3.4799,3.4973,3.4947,3.5182,3.5005,3.4926,3.499,3.4983,3.5164,3.5186,3.5246,3.55,3.5512,3.5325,3.5334,3.5341,3.5345,0,0,0,0,0,0,0,3.4483,3.4518,3.4869,3.4791,3.4798,3.4796,3.4821,3.4991,3.5075,3.4932,3.4931,3.496,3.5166,3.523,3.5252,3.5515,3.5324,3.5338,3.5348,3.5354,3.5961,3.5968,0,0,0,0,0,0,3.446,3.4505,3.4861,3.4877,3.4631,3.4809,3.4838,3.4923,3.5073,3.509,3.4965,3.4958,3.5206,3.5233,3.5261,3.5522,3.5341,3.5356,3.5365,3.5955,3.5963,3.597,0,0,0,0,0,0,3.445,3.4492,3.4851,3.4691,3.4736,3.4823,3.492,3.4931,3.4995,3.5097,3.5113,3.5015,3.5203,3.5238,3.5432,3.553,3.5363,3.5377,3.5947,3.5957,3.5967,3.6045,0,0,0,0,0,0,3.4436,3.4489,3.4568,3.4693,3.4745,3.5016,3.4926,3.494,3.5022,3.5015,3.5148,3.5165,3.5201,3.5408,3.5448,3.5549,3.539,3.5939,3.5952,3.5963,3.6034,3.6056,3.6075,0,0,0,0,0,3.4419,3.4581,3.4572,3.4615,3.4846,3.5021,3.5052,3.5088,3.503,3.5112,3.5178,3.5161,3.5513,3.5428,3.5472,3.558,3.5933,3.5948,3.5962,3.6024,3.6052,3.6075,0,0,0,0,0,0,3.4468,3.4598,3.4589,3.4796,3.4898,3.5017,3.5122,3.5115,3.5237,3.5226,3.5268,3.5299,3.5494,3.5557,3.546,3.5796,3.5716,3.574,3.5748,3.5774,3.5795,3.5776,3.5403,0,0,0,0,0,3.4502,3.4632,3.4739,3.4912,3.4963,3.5034,3.5112,3.5131,3.5239,3.5282,3.5362,3.547,3.5605,3.5693,3.5823,3.6043,3.6073,3.6139,3.616,3.6176,3.6197,3.6321,3.6352,3.6019,3.6019,3.6019,0,0,3.4576,3.4663,3.4742,3.4924,3.5005,3.5141,3.507,3.5216,3.5318,3.5305,3.5492,3.5556,3.5679,3.5887,3.5982,3.5945,3.6296,3.6195,3.6208,3.622,3.6339,3.6371,3.6398,3.6029,3.6027,3.6026,0,0,3.4778,3.4856,3.5009,3.5092,3.5215,3.5261,3.5298,3.542,3.5461,3.5649,3.5643,3.5766,3.5998,3.6086,3.6162,3.6402,3.6391,3.6443,3.6551,3.6671,3.6698,3.6721,3.6808,3.6839,3.6463,3.6464,3.6464,0,3.4854,3.5056,3.5089,3.5237,3.5319,3.5312,3.5469,3.5549,3.5709,3.5767,3.5722,3.6014,3.6096,3.6326,3.6385,3.6446,3.6491,3.6428,3.669,3.6714,3.6737,3.6821,3.6853,3.6469,3.6469,3.6468,3.6468,0,3.5144,3.5285,3.5394,3.5547,3.5641,3.5793,3.5853,3.5945,3.5957,3.6009,3.6203,3.6302,3.6453,3.6509,3.6523,3.6742,3.6715,3.668,3.66,3.6774,3.6853,3.6885,3.6477,3.6475,3.6474,3.6472,0,0,3.5383,3.5554,3.5593,3.5664,3.58,3.5911,3.6064,3.621,3.6289,3.6401,3.6532,3.673,3.6699,3.6785,3.6809,3.6914,3.71,3.6867,3.6871,3.6908,3.7351,3.7376,3.7412,3.7094,3.71,3.7105,3.7341,0,3.56,3.5867,3.5904,3.6143,3.6274,3.6272,3.6406,3.6506,3.656,3.6682,3.6743,3.6882,3.683,3.6882,3.6986,3.7055,3.719,3.7039,3.7219,3.7225,3.7188,3.7454,3.7481,3.7698,3.7372,3.7377,3.7381,0,3.5887,3.6006,3.6257,3.6378,3.6434,3.6554,3.6692,3.6807,3.6923,3.6955,3.7052,3.7064,3.7226,3.714,3.7366,3.7262,3.7339,3.7384,3.7394,3.7412,3.7313,3.748,3.7768,3.7801,3.743,3.7426,3.7422,0,3.6038,3.626,3.6439,3.65,3.6645,3.6729,3.6794,3.6903,3.6989,3.7112,3.7168,3.7309,3.7386,3.7495,3.7546,3.7478,3.777,3.7687,3.7804,3.7803,3.7865,3.786,3.817,3.7914,3.7913,3.7912,3.7912,0,3.6276,3.643,3.6509,3.6619,3.6794,3.6836,3.7008,3.707,3.7168,3.7293,3.7301,3.7419,3.7478,3.7606,3.7648,3.783,3.7865,3.7897,3.7906,3.7897,3.7893,3.7948,3.7934,3.7921,3.7919,3.7918,3.7916,0,3.6472,3.6531,3.6727,3.6848,3.6883,3.7006,3.7111,3.7221,3.7274,3.7433,3.7473,3.7558,3.7709,3.7771,3.7957,3.7985,3.8195,3.8192,3.8155,3.8158,3.8271,3.826,3.8627,3.8678,3.8388,3.839,3.8393,0,3.662,3.6739,3.6873,3.6956,3.7023,3.7158,3.7246,3.7293,3.7385,3.7527,3.762,3.777,3.7893,3.8136,3.8217,3.836,3.8362,3.848,3.8383,3.8371,3.8365,3.8358,3.8371,3.8498,3.8501,3.8504,3.8505,0,3.6878,3.6901,3.7026,3.7163,3.7268,3.7378,3.7486,3.7554,3.7619,3.7723,3.7876,3.7972,3.8162,3.8313,3.8461,3.8531,3.8531,3.8535,3.857,3.8562,3.8536,3.8553,3.8205,3.8527,3.8525,3.8523,3.8522,3.8521,3.7056,3.7162,3.7273,3.7413,3.7499,3.76,3.7709,3.7776,3.7905,3.8061,3.8083,3.8248,3.8364,3.8563,3.8639,3.8772,3.8742,3.8792,3.8805,3.8816,3.8824,3.8514,3.8799,3.8799,3.8798,3.8798,3.8797,0,3.7314,3.7386,3.7515,3.7665,3.7776,3.7764,3.7883,3.7978,3.8123,3.8229,3.835,3.8529,3.8676,3.8769,3.8918,3.9006,3.901,3.9044,3.9038,3.9055,3.8842,3.8798,3.9038,3.9038,3.9038,3.9038,3.9038,3.9038,3.7462,3.7641,3.7679,3.7902,3.7974,3.8134,3.8204,3.8299,3.8384,3.8582,3.8704,3.8762,3.8865,3.9022,3.9158,3.9181,3.9237,3.9273,3.9295,3.9095,3.907,3.9046,3.9004,3.9284,3.9285,3.9497,3.9499,3.95]}]]